Wind_Speed
29 29 28 27 27 26 25 25 24 22 21 20 18 17 16 16 13 12 16 17 17 16 16 16 16 17 17 17 17 18 18 17 16 15 16 18 19 18 17 16 16 17 17 18 17 16 15 15 14 13 12 11 11 12 12 13 13 11 11 11 11 9 8 10 11 15 18 19 20 23 23 23 23 22 23 25 26 26 26 27 28 28 27 28 30
29 29 29 27 27 27 26 25 24 23 23 21 19 19 19 16 12 13 17 18 17 17 16 16 16 17 17 18 18 18 18 17 16 15 17 18 19 18 16 15 15 15 15 15 15 15 15 14 13 12 11 11 12 12 13 13 12 12 12 12 13 12 11 12 13 16 19 21 22 22 21 21 22 23 23 24 27 27 27 28 27 27 28 28 30
29 28 28 27 27 28 27 26 25 25 24 23 22 21 20 16 13 15 19 19 18 17 16 17 17 17 18 18 18 18 18 17 16 16 17 18 18 17 15 14 14 13 13 13 14 14 14 13 12 11 10 11 11 12 13 13 13 13 13 13 12 14 14 14 15 17 20 22 22 22 22 21 22 23 24 24 26 27 28 28 28 27 28 29 30
29 27 28 29 29 29 27 27 28 27 26 25 24 23 20 17 15 17 20 19 19 18 17 17 17 18 18 18 18 18 18 18 16 16 17 17 16 15 14 13 12 12 12 12 13 13 12 12 11 10 9 10 11 11 13 14 14 13 13 13 13 15 17 17 17 18 19 21 21 21 21 21 21 23 25 25 26 27 27 27 28 27 28 29 31
31 30 31 31 30 29 29 29 28 28 28 27 25 23 21 18 17 19 20 19 18 18 18 18 18 18 19 18 19 19 18 17 16 16 16 16 15 14 13 12 11 10 10 11 11 12 11 11 10 9 9 10 11 12 13 16 15 13 13 15 16 17 18 18 18 17 18 20 22 21 20 20 21 22 24 27 30 30 26 25 27 28 29 31 32
32 32 32 31 30 30 29 29 29 29 28 27 25 24 21 19 20 20 19 18 18 18 18 19 19 19 19 18 18 18 18 18 16 15 15 15 14 13 12 11 10 9 9 9 9 10 10 10 9 9 9 10 11 12 13 15 15 14 14 16 17 18 19 19 18 18 18 19 20 21 21 21 22 22 24 27 29 30 30 29 28 28 31 34 34
32 32 32 31 31 30 29 29 29 29 28 27 25 23 21 20 21 20 18 17 18 19 20 20 20 19 19 18 18 18 18 18 17 15 14 14 13 12 11 10 9 8 8 7 8 8 8 9 9 9 9 10 11 13 14 16 16 15 15 17 19 19 20 19 18 18 18 18 18 20 21 21 21 23 26 27 26 27 30 32 32 33 34 34 35
33 32 32 32 31 30 29 29 29 28 28 27 25 23 22 22 22 20 18 17 18 19 21 21 21 20 19 18 18 17 17 18 17 15 14 13 12 10 10 9 8 7 7 6 6 6 6 7 8 8 9 10 12 13 15 17 17 16 17 19 20 20 19 19 18 18 18 18 18 19 21 22 22 24 27 28 28 28 29 30 33 37 37 34 34
34 33 33 32 31 30 30 29 29 28 27 27 25 23 23 23 21 19 17 17 18 20 21 22 21 21 19 18 18 17 18 18 17 15 14 13 11 10 9 8 7 6 5 4 4 4 3 4 7 8 8 10 12 11 13 16 18 18 19 21 21 20 19 19 18 18 18 18 18 19 21 22 24 26 27 27 28 30 32 32 33 37 38 37 34
35 34 33 32 31 31 30 30 30 29 28 27 25 24 23 23 21 18 17 16 17 19 21 22 22 21 20 19 19 18 17 17 16 14 13 12 11 10 9 8 6 5 4 3 3 2 2 2 5 7 8 10 11 10 12 17 19 19 19 21 23 21 18 17 18 18 18 18 19 20 21 22 25 27 27 28 29 31 32 32 33 37 39 36 33
35 34 33 32 31 31 31 31 30 30 29 27 25 25 24 22 20 17 16 16 17 19 21 22 22 21 21 20 19 18 17 17 16 14 12 11 10 9 9 8 7 5 4 3 2 2 2 0 3 6 8 11 11 10 13 17 20 20 20 21 23 22 19 17 16 17 17 18 19 20 20 23 26 27 27 29 31 31 32 31 31 36 37 32 30
35 35 33 33 32 32 32 32 31 31 29 27 27 26 25 23 20 17 17 17 18 19 21 21 21 21 21 20 19 18 17 16 15 13 11 10 9 8 8 8 7 5 4 2 2 2 2 0 3 5 8 11 11 10 14 18 20 21 21 22 22 20 19 18 18 17 17 17 19 20 21 24 26 27 29 32 32 32 31 31 31 34 35 33 32
34 35 34 33 34 33 33 33 33 32 30 29 29 28 26 24 20 17 17 18 18 19 20 21 21 21 21 20 19 18 17 16 14 12 10 9 8 7 7 7 6 5 4 3 2 3 2 0 2 5 8 11 11 12 15 19 21 22 23 24 23 21 19 19 20 20 19 18 18 20 23 25 25 28 32 34 33 32 32 32 33 34 35 35 36
29 33 34 34 34 35 35 35 34 33 31 31 31 30 27 24 21 20 20 19 19 20 20 21 21 21 21 20 19 18 16 15 13 11 10 9 7 7 6 6 6 5 4 3 3 3 2 1 2 5 8 10 12 14 16 19 22 24 24 22 22 22 21 21 22 22 22 20 18 21 25 26 26 31 37 38 34 32 32 34 36 36 36 37 38
27 30 33 34 35 36 36 36 36 35 34 33 32 30 27 25 23 23 21 20 21 21 21 21 22 21 20 20 19 18 16 14 12 10 9 8 7 6 6 6 6 6 5 5 4 3 2 2 3 5 8 10 12 14 16 19 21 23 21 19 20 22 21 21 22 22 23 22 21 23 26 28 29 33 38 40 37 34 32 33 34 34 36 37 37
26 28 31 32 34 35 35 36 36 35 35 35 33 31 29 27 26 23 21 21 22 22 21 22 22 21 20 20 19 17 15 13 11 9 8 7 7 7 7 6 6 6 6 6 5 4 2 2 3 6 8 10 12 13 15 18 20 20 18 18 20 20 19 21 24 23 23 23 23 23 24 26 29 32 36 38 39 38 34 30 29 32 35 35 33
27 30 31 32 34 35 35 36 36 35 36 35 34 32 31 29 26 22 22 23 23 22 22 22 22 21 21 20 19 17 15 13 11 9 8 7 7 7 7 7 7 7 7 7 5 4 2 2 3 6 8 10 11 12 14 17 18 17 16 17 19 18 18 23 28 27 26 25 25 25 26 26 28 32 35 37 40 39 33 28 29 34 34 29 26
29 30 31 32 34 35 37 38 37 37 37 35 34 33 32 29 25 22 23 24 24 23 23 23 22 21 21 20 18 17 16 14 12 10 8 7 7 8 8 8 8 8 8 7 5 3 2 1 3 6 8 10 11 12 14 16 16 15 15 17 18 16 18 24 29 30 29 29 28 29 29 29 30 33 35 37 40 38 31 28 30 34 32 28 29
31 31 32 34 34 35 37 38 37 37 37 35 34 33 32 28 25 23 24 24 24 24 23 23 23 21 20 19 17 16 16 14 11 9 8 7 8 9 9 9 9 8 7 6 5 4 2 1 3 5 7 9 11 12 13 15 15 14 14 15 16 17 20 25 27 27 29 29 29 30 31 30 32 34 35 38 40 38 35 32 30 30 31 32 34
33 33 35 35 34 34 36 37 36 36 36 35 35 34 32 28 25 24 25 25 25 25 24 23 23 21 20 18 16 15 14 13 10 8 8 9 10 10 10 9 9 8 7 6 5 4 2 1 3 5 7 9 10 12 13 14 15 15 14 14 15 18 23 27 27 27 28 27 26 27 27 26 27 28 32 36 38 39 41 38 30 28 29 29 31
35 35 35 36 35 35 36 37 37 37 36 35 35 35 32 28 26 26 26 27 26 25 24 23 22 21 20 19 17 15 13 11 10 8 9 10 12 11 10 9 9 9 7 6 5 3 1 1 3 5 7 8 10 12 13 14 16 16 15 14 16 20 24 26 27 26 25 23 21 22 22 22 23 25 28 33 37 40 43 41 33 29 29 28 30
37 37 37 38 37 37 38 37 37 37 36 36 36 35 32 29 27 26 27 27 27 26 25 24 23 21 20 18 17 15 12 11 10 9 10 11 12 12 11 10 10 9 6 5 4 2 0 2 3 5 7 9 10 12 13 14 16 16 17 18 19 20 23 25 25 24 21 20 20 21 22 23 24 25 27 32 37 42 43 42 38 32 29 30 32
38 37 37 37 36 37 38 37 36 36 37 36 37 36 33 30 29 28 28 28 28 26 25 24 23 22 20 17 16 14 12 11 9 8 10 12 13 13 12 11 10 9 6 4 3 1 1 3 4 6 7 9 10 12 13 15 16 17 18 19 20 21 22 23 23 22 20 20 21 22 23 23 24 25 27 32 38 42 42 43 44 38 31 31 33
36 35 36 35 34 35 36 36 36 36 37 38 38 36 34 33 32 31 30 29 27 26 26 25 23 21 18 16 15 14 13 11 9 8 9 11 13 13 12 11 9 8 7 5 3 1 2 4 5 6 8 9 10 12 14 15 16 17 18 19 20 20 20 20 20 20 19 20 21 22 23 23 24 26 29 35 39 39 38 41 45 39 31 31 34
34 35 36 35 35 36 35 35 35 36 37 39 39 37 37 36 34 33 32 29 27 26 26 25 21 18 16 14 15 15 14 11 10 9 8 10 12 13 12 11 9 8 7 5 3 1 2 4 5 7 8 9 11 13 14 16 17 17 18 19 19 18 18 18 18 19 19 20 22 22 22 23 25 28 33 38 36 31 32 37 39 36 31 30 32
35 34 34 34 36 36 35 35 35 35 38 40 39 39 39 38 37 35 32 28 27 28 28 25 20 17 16 15 14 15 15 13 11 10 9 9 10 11 12 12 10 8 8 6 4 2 3 5 6 7 8 10 12 14 15 17 17 17 18 19 18 17 17 17 17 17 18 19 21 21 22 23 25 29 33 34 30 27 30 33 33 33 33 30 30
36 32 31 33 35 36 36 36 35 36 38 39 38 38 39 39 39 36 31 27 27 28 28 26 20 17 17 16 15 16 16 14 13 13 11 10 10 10 11 12 11 10 8 7 5 4 4 6 7 8 9 10 12 14 15 16 17 17 16 17 18 19 19 19 19 16 15 18 20 21 23 24 25 27 29 28 27 28 29 29 29 32 33 31 27
35 33 34 36 37 36 37 36 35 36 38 37 35 36 37 37 38 36 33 31 29 28 27 26 23 20 18 16 16 17 16 14 14 15 14 12 11 11 11 12 12 11 10 8 7 6 7 8 8 8 9 10 11 12 13 14 15 16 17 17 19 19 20 20 19 15 16 20 21 22 24 25 24 24 25 26 28 30 28 26 28 30 31 30 28
32 33 35 36 35 34 35 35 35 35 34 30 30 34 37 36 36 36 36 35 33 30 27 27 28 26 22 18 17 16 14 14 14 13 12 12 12 12 11 11 11 11 11 10 9 8 9 8 8 7 8 9 11 11 12 13 14 15 17 18 18 17 17 18 16 16 20 23 22 21 23 24 23 23 23 25 28 31 29 26 26 27 28 29 28
29 32 35 35 34 34 34 34 34 33 29 24 23 28 33 35 35 35 35 34 33 31 28 27 30 29 26 22 19 16 14 13 11 9 9 11 12 13 12 11 10 11 11 10 10 10 10 9 8 8 8 9 10 11 12 14 15 15 16 17 17 16 18 17 15 18 24 25 22 21 22 22 22 22 22 24 27 29 29 28 26 24 26 29 29
30 32 32 33 35 35 33 31 29 27 25 23 22 23 25 27 30 32 31 31 31 30 27 26 27 28 26 22 19 17 14 12 10 8 8 9 11 13 13 13 12 11 10 10 10 10 9 9 8 8 8 9 11 13 14 15 15 16 16 16 16 16 17 16 17 21 25 24 23 24 23 22 22 22 22 24 26 26 27 28 26 23 24 27 28
35 35 33 33 35 32 28 26 25 23 23 25 25 24 22 20 22 26 28 28 28 28 26 25 26 27 25 21 19 17 15 12 11 10 9 9 11 12 13 14 13 12 11 11 10 9 9 9 9 9 9 10 12 13 15 15 15 16 15 15 15 15 15 15 19 22 23 22 23 23 22 23 25 25 24 24 24 24 25 26 25 24 23 24 25
37 38 34 33 33 29 25 25 25 25 26 28 26 23 21 19 19 21 22 23 24 24 24 24 25 26 24 21 19 17 15 14 12 11 10 11 12 12 12 13 14 13 12 12 12 10 9 9 9 9 10 11 13 14 15 16 16 16 16 15 15 15 15 17 19 21 22 22 22 22 21 23 25 25 25 24 21 20 22 24 24 24 22 23 24
37 38 35 34 34 30 25 25 26 25 25 26 25 23 22 22 22 22 20 18 18 20 22 24 25 25 23 21 20 18 16 15 14 13 12 11 12 12 12 13 14 14 14 14 14 12 11 10 10 11 11 12 14 15 16 16 16 16 16 16 15 15 17 18 18 18 20 22 21 20 22 23 22 23 24 23 21 20 21 22 24 24 22 21 22
33 35 34 34 34 31 27 26 27 26 26 28 29 27 26 25 26 27 24 20 17 17 18 22 24 24 23 21 20 18 17 16 15 14 12 12 13 13 13 13 15 16 16 16 16 15 13 12 12 12 12 14 15 16 16 16 15 15 16 17 16 16 17 17 17 18 20 21 20 21 23 23 21 22 23 22 20 19 20 21 23 23 22 21 21
29 31 31 31 32 33 32 30 29 29 30 32 32 31 30 29 29 28 27 26 22 17 16 19 22 22 21 20 19 17 16 16 16 15 13 13 13 14 14 15 16 15 15 16 16 16 16 16 15 15 16 16 17 16 16 15 15 15 16 17 18 19 18 17 18 19 20 20 20 21 22 21 22 23 24 22 20 19 19 21 22 23 24 24 22
28 31 32 32 32 33 32 32 32 32 32 32 31 29 28 30 30 28 27 27 26 21 17 18 21 21 20 19 18 17 17 16 15 14 14 14 14 14 15 16 15 14 14 15 15 16 17 17 18 18 18 19 18 17 16 15 15 15 16 17 18 20 20 20 20 20 20 20 20 20 20 21 21 21 21 21 20 19 21 23 23 23 26 27 23
31 33 33 33 32 32 31 30 30 30 30 30 27 25 25 26 27 27 25 26 26 24 21 20 21 21 20 19 18 17 16 16 15 15 15 15 15 16 17 17 16 16 16 15 15 16 17 18 19 20 20 20 20 18 16 15 15 15 16 17 18 20 21 22 22 21 21 20 19 17 17 18 18 18 19 18 17 19 22 24 23 21 22 24 22
29 31 32 31 31 31 31 30 29 29 29 26 22 22 24 25 23 23 23 23 24 25 23 23 23 21 19 18 18 17 16 16 17 17 18 18 18 18 18 19 19 19 18 18 19 19 20 20 21 21 21 20 18 16 14 14 15 15 16 17 19 20 21 22 22 22 21 20 18 16 16 16 16 17 18 16 15 18 23 24 22 20 19 19 22
25 28 31 31 30 29 30 30 30 30 30 26 22 22 26 26 24 24 24 24 24 24 24 24 23 22 19 18 18 18 18 18 19 20 21 20 20 19 20 20 21 20 20 20 21 22 22 22 22 21 20 18 15 14 14 14 15 15 16 18 19 20 21 22 22 22 21 20 19 18 18 17 17 17 16 14 15 19 22 20 18 18 17 17 21
26 29 30 31 30 29 28 28 29 30 31 30 28 28 29 29 28 29 29 27 27 26 26 25 24 21 20 19 19 18 18 18 19 19 20 20 20 20 21 21 21 21 22 22 22 23 23 22 21 19 17 15 14 14 14 15 15 16 17 18 19 20 21 22 22 23 22 21 20 19 18 18 17 16 15 16 18 19 18 16 16 17 17 16 18
27 28 29 30 29 28 28 29 29 29 29 29 29 29 30 29 28 28 28 28 28 29 28 27 25 22 21 20 19 18 19 18 17 17 18 18 19 20 21 22 22 22 23 23 23 23 22 20 18 16 14 14 14 14 15 15 16 16 17 19 20 21 22 23 23 23 23 22 21 20 18 17 17 17 16 17 18 17 16 16 17 17 16 16 18
26 27 28 29 29 29 29 29 28 28 29 29 29 29 28 27 27 27 27 27 28 28 28 27 25 23 22 20 18 18 19 18 17 17 17 17 18 19 20 21 22 22 22 22 21 21 20 18 16 15 14 14 15 15 16 16 16 17 18 19 20 21 22 22 23 23 23 22 21 20 19 18 16 16 16 16 17 17 17 17 16 16 15 15 16
26 27 28 29 29 29 28 28 28 29 30 30 30 29 29 28 27 28 28 27 27 28 27 26 25 24 22 20 19 18 19 18 18 18 17 17 18 19 19 20 21 21 21 20 19 19 18 17 16 16 16 16 16 16 16 17 17 18 19 19 20 21 21 21 21 22 22 22 21 20 20 19 17 16 17 17 17 18 17 16 15 16 16 15 14
28 28 29 29 29 28 27 27 28 28 28 28 27 27 27 28 28 28 28 27 27 27 27 26 25 24 22 19 18 17 17 17 18 18 18 17 17 17 18 18 19 19 19 19 18 18 18 18 17 17 17 16 17 17 17 17 17 18 18 18 19 19 19 20 20 20 21 21 20 19 19 19 18 17 16 15 14 15 16 16 16 16 16 15 14
28 29 29 29 29 28 27 27 28 27 27 27 26 24 25 26 27 27 27 27 27 27 26 26 25 24 21 19 17 16 16 17 17 17 16 16 15 16 17 18 19 20 19 19 19 18 18 18 18 18 17 16 16 17 17 16 16 17 16 17 17 18 19 20 20 20 19 19 19 19 18 18 19 19 18 16 14 15 16 18 18 17 16 15 14
29 30 30 30 30 29 28 28 28 27 27 28 27 25 25 27 27 26 26 26 26 26 26 25 24 22 20 19 17 16 17 17 17 17 16 15 16 16 17 18 19 20 20 19 19 19 19 19 19 18 17 16 16 16 16 16 16 16 16 17 18 19 20 21 21 20 19 18 18 19 18 17 18 19 19 19 17 16 17 19 19 18 17 15 14
27 28 29 29 29 29 28 27 27 27 27 28 27 27 27 27 26 26 26 26 25 25 25 24 23 22 21 20 18 18 18 18 18 17 16 16 16 16 16 17 18 18 19 20 20 20 20 19 18 17 17 16 16 16 16 17 17 18 19 20 20 21 21 21 20 19 19 18 18 18 18 18 17 17 18 19 19 17 18 18 17 16 15 15 14
26 27 27 27 27 28 29 29 29 29 29 28 27 26 25 25 24 25 25 25 24 24 23 23 22 22 21 19 18 18 19 19 18 18 17 16 16 16 16 17 17 18 19 20 20 20 20 19 19 18 17 17 17 17 16 16 17 17 18 19 20 19 19 18 17 17 17 17 17 17 17 18 18 17 17 18 18 17 18 19 19 18 17 17 16
23 23 24 25 25 26 28 30 31 31 29 28 27 26 25 24 23 24 24 24 24 23 23 23 23 22 19 17 17 18 19 19 18 17 17 17 18 19 19 19 19 20 20 20 20 20 20 20 19 18 17 17 16 16 16 16 16 17 17 18 17 16 15 15 15 15 15 16 16 16 17 18 18 16 16 16 16 16 18 19 19 19 18 18 18
20 20 21 23 24 25 26 29 30 30 30 29 28 27 26 24 24 24 25 24 23 23 23 23 21 18 16 16 16 17 18 18 18 18 18 19 20 20 21 21 21 21 21 21 21 21 21 20 18 17 17 17 17 16 16 16 16 17 17 16 15 14 14 15 15 16 16 16 16 16 16 17 17 17 17 16 16 17 18 18 19 19 18 18 18
Wind_Direction
181 182 184 188 188 184 181 179 176 174 171 170 171 172 167 160 156 162 167 167 167 168 167 166 166 162 156 152 150 147 144 138 128 119 118 124 127 122 118 115 108 104 97 91 88 86 85 84 83 80 74 66 56 47 39 30 23 17 11 5 359 351 334 324 316 314 319 323 319 319 322 323 322 323 324 323 322 321 319 317 316 315 312 311 311
180 182 184 186 185 182 179 177 175 174 173 174 175 174 167 160 162 169 169 169 171 172 171 170 169 166 161 157 154 151 148 142 131 122 122 128 131 126 122 119 113 108 102 95 89 87 86 85 82 77 69 59 50 41 31 22 16 11 6 1 355 352 345 334 327 321 320 322 321 318 322 324 322 324 327 323 322 322 320 317 315 313 312 310 307
180 182 183 183 182 180 176 176 177 177 177 177 176 173 167 162 167 174 173 172 174 174 175 174 172 170 165 160 158 156 152 146 135 125 125 131 133 129 125 123 118 113 106 98 92 87 85 84 80 72 61 50 42 33 23 16 11 5 0 356 350 348 347 340 332 325 320 319 320 321 323 325 323 324 327 324 322 322 319 317 316 313 312 310 308
181 182 181 180 179 177 176 177 179 179 178 178 176 172 167 165 172 177 175 174 175 176 177 176 175 173 169 165 163 160 157 150 140 132 131 133 135 132 129 126 121 116 110 101 92 87 84 81 75 64 53 43 33 25 18 12 7 2 356 353 349 345 343 339 332 326 318 314 317 321 322 324 323 325 327 327 325 323 318 317 317 314 312 310 311
180 181 180 178 176 176 178 178 179 179 179 178 175 171 168 169 174 177 175 176 178 178 178 177 178 177 173 169 166 163 161 155 146 141 138 137 137 136 133 130 126 123 117 106 95 87 82 78 71 61 47 36 26 18 13 10 6 1 356 353 349 344 340 337 331 324 316 313 315 320 322 323 323 325 329 330 327 325 321 320 318 315 315 316 315
177 178 178 175 175 178 179 178 179 180 179 177 174 172 170 172 175 176 177 180 181 181 181 180 180 180 176 173 169 166 165 161 155 149 146 144 143 139 135 134 133 131 126 115 101 88 81 75 67 58 44 30 20 13 10 8 5 1 357 353 349 344 340 336 330 323 316 314 315 319 324 327 326 326 331 332 327 324 324 323 320 319 321 322 318
176 177 176 176 177 178 178 178 179 179 178 176 173 172 173 175 175 176 180 184 185 185 184 182 182 182 179 175 172 170 169 168 163 158 154 153 150 145 142 143 143 140 134 124 110 95 83 72 60 52 42 26 16 12 10 7 3 359 356 353 349 345 340 335 330 325 321 319 320 323 325 327 328 328 330 332 328 326 327 325 324 326 326 323 319
177 177 177 177 178 178 178 178 179 178 177 175 174 174 176 176 176 179 182 187 190 189 186 185 183 182 180 177 175 174 173 173 171 166 162 161 158 155 154 156 156 150 140 130 122 109 88 71 56 46 37 23 15 15 12 7 1 357 355 353 349 345 340 335 331 329 327 325 324 326 327 328 331 331 332 334 333 332 331 326 323 325 325 322 319
177 177 178 178 178 177 177 177 177 177 175 175 176 177 177 177 178 180 183 188 192 191 188 186 182 181 181 179 179 178 177 178 177 172 169 167 165 165 166 168 168 161 152 144 137 127 105 73 46 36 30 17 11 14 13 7 1 356 352 351 349 345 340 336 334 333 330 328 328 330 330 331 334 335 334 336 334 329 328 326 323 324 323 320 319
176 177 178 178 178 177 176 176 175 175 175 175 177 177 177 178 180 181 184 189 191 188 187 185 182 181 181 181 181 181 182 182 179 174 171 168 169 172 175 177 174 168 165 162 161 159 145 82 30 26 21 8 4 10 12 6 2 357 352 350 349 346 340 335 335 335 332 329 329 331 332 332 334 334 331 332 332 328 326 326 324 324 324 322 322
176 178 179 178 177 175 175 174 173 174 175 176 177 178 179 179 181 184 185 186 185 184 185 183 182 182 182 182 183 183 184 183 178 175 173 171 173 176 179 182 178 177 178 169 173 183 173 144 12 16 10 359 358 5 6 3 0 357 354 352 352 351 346 339 335 334 333 329 327 329 331 331 331 331 331 332 332 329 326 325 323 324 327 327 326
177 178 179 177 175 174 173 172 173 174 175 177 179 180 180 180 182 186 186 184 182 182 183 182 181 182 182 183 183 184 184 183 179 179 178 177 181 182 184 186 181 182 188 181 182 179 167 206 0 11 4 356 355 357 358 358 358 356 354 355 357 358 355 350 344 339 332 326 324 326 329 329 329 330 332 332 329 326 325 324 323 324 326 327 325
178 177 178 177 175 174 173 172 173 175 177 180 181 180 180 179 182 188 189 186 183 180 179 180 180 182 182 182 183 183 183 182 180 181 182 184 187 184 185 187 183 185 187 181 178 167 156 82 2 4 358 356 358 357 354 354 355 354 354 355 358 1 1 359 356 351 340 329 321 321 325 326 324 326 331 331 326 324 326 324 323 325 325 325 322
177 174 174 175 175 174 173 173 174 176 178 180 179 179 180 181 185 191 191 187 183 178 177 179 180 181 181 181 181 180 180 179 178 180 184 188 190 189 192 194 194 195 191 182 174 163 149 93 14 1 356 357 358 356 353 352 352 352 352 351 352 357 2 1 359 355 349 338 323 318 325 328 323 326 334 335 327 323 323 321 319 323 324 321 317
180 175 172 173 175 174 174 175 176 176 177 178 178 180 183 185 187 190 189 186 182 177 175 178 180 180 180 180 178 175 175 174 175 180 189 197 204 211 216 215 208 201 193 184 173 161 145 82 26 6 359 357 354 352 349 350 350 349 347 345 346 352 359 360 359 357 353 348 338 329 332 335 334 337 341 341 333 326 321 315 314 319 323 321 317
178 176 173 173 175 175 174 175 175 176 177 178 180 183 185 186 186 186 187 186 182 178 177 179 180 179 178 178 175 172 172 174 178 189 201 208 213 217 217 207 194 186 182 176 168 161 141 71 28 7 0 355 350 348 346 347 349 346 342 338 341 346 350 353 359 1 358 356 352 345 343 344 345 346 348 346 341 334 326 318 319 325 327 325 323
175 177 174 173 174 175 175 176 177 177 178 180 181 183 184 185 184 185 187 184 180 178 178 180 181 179 177 177 175 174 175 179 183 190 198 201 201 201 195 182 172 169 171 170 164 156 135 67 20 3 358 352 348 344 344 346 347 344 339 336 338 341 344 349 356 360 1 1 359 355 354 353 353 353 353 352 348 343 335 327 331 333 331 328 327
178 177 176 175 176 178 180 181 182 181 180 181 183 183 184 184 184 185 186 184 180 179 180 181 183 181 179 178 179 178 178 178 178 179 182 186 186 183 178 169 163 163 164 166 166 161 152 29 4 358 353 351 349 344 343 344 345 342 337 335 337 338 342 348 352 355 357 0 1 360 359 359 359 359 357 354 353 350 342 331 332 335 333 328 325
180 178 179 179 180 181 183 184 184 184 183 185 185 185 185 184 184 185 186 183 178 177 180 182 183 182 181 181 180 178 174 169 168 170 171 171 169 169 170 167 163 164 163 164 169 174 187 308 345 349 348 351 351 346 343 342 342 340 336 333 335 337 340 345 347 347 350 353 356 358 358 358 358 357 355 354 354 353 348 338 334 336 334 327 325
182 180 180 180 180 181 182 183 185 185 186 187 186 185 185 184 183 182 183 181 177 176 179 181 181 180 179 176 173 172 167 161 162 165 160 155 153 157 165 167 163 163 164 163 166 170 176 297 333 337 342 349 350 348 344 340 339 339 335 331 331 333 338 343 345 346 347 347 348 350 350 348 349 350 350 352 352 353 353 348 339 334 333 327 324
182 180 180 180 181 181 182 185 186 187 188 188 186 185 185 184 182 181 180 179 176 175 177 179 178 175 172 168 165 164 162 159 160 158 153 152 151 154 162 166 160 156 155 156 155 146 133 349 329 329 337 344 347 348 345 340 338 336 332 328 329 331 337 341 344 346 345 341 340 342 343 343 345 346 348 350 352 354 355 352 345 338 336 332 329
182 181 180 181 182 183 184 186 187 188 190 188 185 184 183 183 181 180 179 178 175 174 174 175 173 167 164 164 163 161 160 160 158 155 155 158 160 161 164 166 161 155 152 152 146 126 61 335 325 324 333 341 343 344 343 341 338 335 332 330 329 331 337 340 342 342 341 340 341 343 346 347 347 347 348 349 352 356 356 354 350 343 338 340 339
182 180 180 180 181 184 185 186 186 187 189 187 185 184 182 180 180 179 179 177 174 172 172 171 168 165 164 166 167 166 165 163 159 155 160 167 170 170 170 168 165 162 160 158 149 121 343 333 327 322 330 339 339 339 339 337 335 335 335 333 332 333 337 340 342 341 339 343 346 347 348 349 347 346 347 348 353 358 358 357 355 349 338 340 346
178 177 178 179 180 183 184 185 186 187 187 186 185 183 181 180 179 179 179 178 174 172 173 172 170 168 168 171 174 176 174 171 166 163 165 172 176 177 176 174 173 173 172 171 172 174 341 336 328 324 329 335 335 335 334 332 332 334 336 337 337 338 338 338 340 340 341 346 349 347 347 347 345 345 347 351 355 356 355 355 357 352 340 338 346
175 176 177 178 179 180 181 183 186 187 187 186 185 183 181 180 180 180 180 179 177 176 177 177 177 176 176 177 182 185 184 180 178 177 176 179 182 184 185 184 185 186 184 187 197 233 337 336 328 324 327 331 335 335 333 331 331 332 337 342 343 341 339 337 338 340 343 346 347 346 344 343 344 347 352 355 353 349 348 351 353 349 342 340 344
174 175 176 178 179 179 179 181 184 186 187 187 187 186 185 183 182 183 183 183 183 182 182 183 183 184 186 185 186 190 192 192 194 195 194 191 190 193 195 197 199 199 196 201 215 255 319 328 324 318 319 325 330 331 331 331 331 333 339 345 346 344 341 339 338 339 341 342 343 343 341 341 343 349 354 353 349 345 346 348 347 346 347 345 342
173 173 176 177 178 180 181 182 183 185 186 187 188 189 189 188 187 187 186 187 187 187 187 189 189 190 192 192 194 197 199 201 206 209 210 208 203 202 203 206 209 207 208 218 233 259 298 316 319 313 313 319 324 327 330 332 334 337 341 344 347 348 349 348 345 340 336 338 339 340 342 343 345 348 351 349 347 348 347 345 344 346 348 348 345
173 174 177 178 179 182 183 182 182 183 185 187 188 188 189 190 191 192 194 194 192 191 191 193 195 196 195 194 198 201 205 211 215 215 215 214 212 212 212 213 215 215 219 230 242 262 288 303 310 312 313 317 321 325 329 331 334 338 342 346 348 350 352 352 349 342 338 340 342 342 345 347 347 348 348 347 348 350 348 346 346 347 348 351 350
174 175 177 177 178 180 181 181 181 183 184 185 188 192 195 195 196 199 202 203 202 201 199 199 201 201 199 198 200 201 207 215 217 218 221 222 221 221 221 221 222 224 229 238 249 266 282 291 297 304 310 314 318 322 326 329 333 336 340 345 347 347 349 349 345 341 343 344 343 342 344 346 346 348 349 348 349 351 349 347 347 346 350 355 354
173 175 175 176 177 179 180 181 183 183 182 181 184 192 199 202 204 206 208 209 210 211 211 209 206 205 204 205 206 205 209 216 220 224 232 232 229 227 225 227 232 234 238 246 256 266 275 280 286 296 304 307 312 317 320 325 330 333 335 339 342 345 348 348 344 344 347 347 345 343 344 345 345 347 349 348 348 350 350 350 349 348 353 358 356
171 174 176 178 179 179 179 180 181 182 182 181 181 184 191 199 205 209 211 213 214 216 219 218 213 209 208 210 213 214 219 227 234 236 232 228 227 225 224 228 236 242 246 252 258 262 267 273 280 289 296 299 304 312 317 320 325 329 330 331 333 338 343 343 342 346 347 347 346 346 346 346 345 345 347 348 348 349 350 351 351 352 354 358 357
173 176 179 181 181 180 178 177 177 177 179 181 182 182 182 186 196 205 211 214 216 219 222 220 214 209 210 215 222 226 230 237 245 248 239 228 226 225 223 226 235 244 250 253 256 257 260 267 275 283 291 294 299 307 314 317 320 323 323 322 324 328 333 336 340 346 346 344 344 345 345 346 347 347 347 348 348 348 348 349 351 351 352 355 354
179 180 180 180 180 180 179 178 178 179 181 183 183 182 180 179 184 194 203 211 216 221 223 219 213 209 212 219 226 233 238 241 248 256 252 234 227 228 225 224 230 241 248 251 254 257 258 264 273 279 285 290 296 304 311 315 317 320 319 317 316 319 324 330 337 342 344 343 343 343 344 346 348 348 348 348 348 347 347 349 350 350 351 353 352
184 183 183 182 182 181 180 180 180 180 181 183 183 183 184 186 187 187 189 194 203 212 217 217 216 216 220 226 231 236 240 242 248 256 250 230 223 227 226 223 227 236 244 247 251 256 259 265 273 278 283 289 295 302 309 313 315 317 317 315 313 312 317 325 329 333 338 341 341 341 343 346 347 347 347 347 347 348 350 351 352 351 351 350 350
185 185 185 184 183 182 181 181 182 182 183 185 187 188 190 192 194 193 191 188 190 198 207 214 218 221 225 230 234 236 239 244 249 249 236 220 218 223 222 221 225 232 240 246 251 256 260 264 271 276 282 288 294 300 307 310 311 312 312 312 311 310 311 316 319 322 330 335 336 338 343 345 345 347 348 346 344 347 350 351 351 351 351 349 347
183 184 185 186 186 186 186 186 186 187 188 190 192 193 194 196 197 198 197 196 196 196 199 208 216 221 225 230 233 235 239 245 245 235 219 213 220 224 222 223 226 231 239 247 253 258 263 267 272 278 282 288 294 300 306 308 307 307 308 309 311 311 309 309 311 316 321 325 329 335 340 342 344 348 349 348 345 346 349 349 350 351 353 352 349
183 183 185 187 189 189 189 191 192 193 193 193 193 193 195 197 199 198 198 200 201 200 198 204 211 215 219 224 230 234 237 235 228 216 208 213 223 228 229 229 231 234 240 246 251 258 264 269 275 281 285 290 294 298 302 303 301 301 304 307 310 312 311 310 310 312 314 317 320 327 334 338 341 344 346 345 344 345 348 351 350 350 353 355 355
188 189 189 187 188 188 188 190 192 193 193 193 193 192 194 195 197 197 198 201 203 202 203 206 210 211 213 218 223 226 224 216 207 203 207 216 225 230 232 234 235 239 245 250 254 259 265 271 278 284 289 292 295 295 295 295 294 295 300 305 309 311 314 315 315 314 314 314 314 317 323 330 334 337 340 341 340 342 347 351 351 349 350 354 357
190 193 191 188 187 187 188 189 189 190 191 191 190 192 194 193 193 195 198 201 203 205 206 209 211 212 214 217 217 214 208 205 206 211 217 224 231 235 236 238 241 245 251 257 262 267 272 277 282 288 291 293 293 291 288 286 287 290 295 301 306 310 313 315 314 314 313 312 309 308 313 318 323 330 335 336 335 340 347 350 349 348 348 350 354
186 190 191 189 187 187 190 191 190 191 193 192 191 194 196 195 195 198 200 202 205 207 208 211 213 214 216 218 217 212 209 212 220 225 227 231 236 239 240 242 245 250 256 262 268 273 277 280 284 288 290 290 287 282 280 280 282 287 293 298 303 308 313 315 315 315 315 315 314 311 309 311 316 323 328 328 330 339 345 345 343 344 345 346 351
186 188 190 189 189 188 190 191 192 195 197 197 198 200 201 201 201 203 204 205 207 209 211 215 217 218 220 223 223 220 220 225 231 234 235 237 239 242 244 246 249 255 261 267 272 275 277 280 284 286 286 283 277 274 275 277 279 284 290 296 301 307 312 315 318 319 320 321 321 318 313 309 308 310 316 322 327 333 338 339 341 343 344 345 349
188 188 188 188 189 189 190 192 195 197 197 198 199 201 202 203 203 204 204 206 207 209 213 216 219 221 225 227 227 225 226 232 237 239 240 241 243 246 249 252 256 261 265 269 272 275 277 280 282 281 277 273 270 270 272 274 278 282 288 293 299 304 308 312 315 318 320 323 324 323 320 314 307 303 306 315 321 324 327 333 340 343 342 342 348
189 189 189 189 190 191 194 195 195 195 196 197 200 201 203 203 204 205 206 208 209 211 213 215 217 222 227 230 229 227 229 235 241 244 245 246 248 250 254 257 261 264 267 269 272 274 277 278 278 275 272 270 270 272 272 273 277 281 285 290 295 300 303 308 311 314 317 320 322 324 323 321 315 306 300 304 309 313 317 325 333 338 340 340 344
190 190 191 191 192 194 197 196 196 197 200 201 202 204 205 206 207 209 211 212 213 214 216 217 219 222 226 229 228 228 233 241 248 250 251 252 254 257 259 261 262 264 266 269 271 273 274 275 274 274 274 274 273 274 274 275 277 279 281 286 291 294 299 304 308 312 314 314 316 320 321 320 319 312 303 301 303 306 309 314 321 329 336 338 338
191 191 191 192 193 195 197 198 199 200 201 200 200 203 205 207 210 212 213 214 216 217 218 219 221 222 225 228 231 235 242 250 254 256 257 257 259 261 261 261 262 263 265 268 270 270 271 272 273 275 275 273 272 272 273 273 274 275 277 280 284 288 293 299 304 309 311 311 313 316 315 314 315 314 306 298 295 298 301 305 310 317 326 331 332
192 192 192 192 193 195 197 199 199 199 199 198 198 199 202 206 211 214 214 215 217 218 220 221 223 224 227 231 235 241 250 255 258 260 261 260 260 259 258 257 258 260 263 266 268 268 269 272 274 275 273 271 271 272 272 272 273 274 275 276 279 282 288 294 299 303 305 307 309 310 309 309 311 313 311 304 296 294 297 300 302 305 310 317 323
193 194 195 196 196 197 198 199 198 198 199 200 201 202 204 208 212 215 216 217 218 220 222 224 225 228 231 234 238 247 256 261 264 265 265 262 260 260 260 259 259 260 261 263 266 268 271 274 275 276 275 274 273 272 272 272 272 272 273 275 278 282 286 290 294 296 297 300 302 303 303 304 307 309 310 308 303 301 300 298 298 300 301 305 311
191 194 196 196 196 196 195 195 196 197 199 202 203 205 207 210 212 215 217 219 220 221 224 226 230 234 236 239 244 253 260 264 265 264 261 260 260 261 263 264 263 262 262 263 265 270 274 276 278 280 279 276 274 272 270 269 268 268 269 271 275 279 284 288 291 293 294 295 297 297 299 302 304 304 304 304 303 303 300 295 291 290 291 294 298
192 194 195 196 196 195 194 194 195 197 199 201 203 204 207 210 212 216 220 222 223 224 227 231 235 238 240 242 247 254 259 261 262 260 256 255 257 259 261 263 263 263 263 265 267 271 274 276 280 281 280 277 275 274 273 271 269 268 269 271 275 280 284 286 288 291 291 290 292 294 296 301 304 306 306 306 307 306 301 296 292 290 286 285 288
192 193 193 194 194 195 195 195 196 196 198 199 201 204 208 212 215 218 222 224 225 227 231 234 237 238 240 243 248 254 258 259 259 257 256 256 258 260 261 261 262 263 265 266 268 270 272 275 278 279 278 277 277 275 274 274 272 270 271 273 276 279 283 285 288 292 294 294 296 297 298 302 305 307 308 308 308 306 302 298 295 292 287 283 283
191 192 193 194 194 195 196 196 195 196 197 198 200 204 209 214 219 222 225 226 228 230 233 235 236 237 241 247 252 257 259 259 259 259 260 262 264 265 266 265 265 265 266 267 268 269 271 273 275 276 276 275 276 274 274 274 273 272 271 271 271 275 282 288 293 297 300 301 301 301 301 302 303 304 304 304 302 300 299 296 293 290 286 281 278
Height
816 818 820 822 824 826 828 831 833 835 837 839 841 843 845 846 848 849 851 853 855 857 858 859 860 861 862 863 864 865 867 868 868 869 869 869 871 871 872 872 872 872 872 872 872 872 873 873 874 874 875 875 874 874 874 873 873 872 871 870 870 869 867 865 862 857 854 852 849 844 841 838 834 832 828 824 821 818 815 812 808 804 800 796 791
814 817 819 821 823 825 828 830 832 835 837 838 840 842 844 846 847 849 851 853 855 856 857 859 860 861 862 863 864 865 867 868 868 869 869 870 871 872 873 873 873 873 873 873 873 873 873 874 874 875 875 875 875 874 874 873 872 872 871 869 868 867 866 864 861 857 852 849 846 843 840 837 833 829 827 822 818 815 812 809 805 801 798 793 788
813 815 818 820 822 825 827 829 831 833 835 837 839 841 843 845 847 849 851 853 854 856 857 858 860 861 862 863 864 865 867 868 869 869 869 870 871 872 873 873 874 874 874 873 873 873 874 874 875 875 875 875 875 874 874 873 872 871 870 869 867 866 864 863 860 857 852 848 844 841 838 835 831 827 824 821 817 813 809 805 802 799 795 790 785
812 814 817 819 822 824 826 828 830 832 834 836 838 840 842 844 847 849 851 852 854 855 857 858 859 861 862 863 864 865 866 867 869 869 870 871 872 872 873 874 874 874 874 874 874 874 874 874 875 875 875 875 875 874 873 872 871 871 869 868 867 865 863 861 859 856 852 847 843 840 836 833 830 826 822 818 815 812 808 803 799 796 792 788 783
810 813 816 818 821 823 825 827 829 831 833 836 838 840 842 844 847 849 851 852 853 855 856 858 859 860 862 863 864 865 866 867 868 869 870 871 872 872 873 874 875 875 875 874 874 874 874 874 875 875 875 875 875 874 873 872 871 870 869 868 866 864 862 860 857 855 852 846 841 838 835 832 828 825 821 817 812 807 805 802 797 793 789 786 782
809 812 815 817 820 822 824 826 828 830 833 835 838 840 842 844 846 848 851 852 853 855 856 857 859 860 861 862 863 865 866 867 868 869 870 871 872 872 873 874 875 875 875 875 874 874 874 875 875 875 875 875 874 874 872 872 870 870 869 867 865 863 861 858 856 853 850 846 841 837 834 831 827 823 821 817 811 805 800 797 795 792 787 782 777
808 811 814 816 819 821 823 826 828 830 833 835 838 840 842 844 846 848 850 851 853 854 855 857 858 860 861 862 863 864 865 867 868 869 870 871 872 872 873 874 875 875 875 875 874 874 874 875 875 875 875 875 874 873 872 871 870 869 868 866 864 862 860 857 855 852 849 845 841 837 833 830 827 823 819 816 812 807 801 794 789 787 784 779 773
807 810 813 815 818 820 823 825 828 830 833 835 838 839 841 843 845 847 849 850 852 853 854 856 857 859 860 861 862 864 865 867 868 869 870 871 871 872 873 874 874 875 875 874 874 875 874 875 875 875 875 874 874 873 872 870 869 868 867 866 864 862 859 857 854 851 848 844 840 837 833 829 826 822 818 814 809 805 801 796 788 781 778 775 771
805 809 812 814 816 819 822 825 827 830 833 835 838 839 841 843 845 847 849 850 851 852 854 855 856 858 859 860 862 864 865 866 867 868 869 870 871 872 873 874 874 874 875 874 874 875 875 875 875 874 874 874 873 873 872 871 869 868 867 865 863 862 859 857 854 850 847 843 839 836 832 828 825 821 817 813 809 803 799 796 789 781 775 770 768
803 807 810 813 815 818 821 824 827 829 832 835 837 840 843 845 846 848 849 850 851 852 853 854 855 856 858 860 862 864 865 866 867 868 869 869 871 871 872 873 874 874 874 874 874 875 875 875 874 874 874 873 873 872 871 870 869 868 867 865 863 861 859 857 854 851 847 843 839 836 832 828 825 822 817 814 810 805 799 793 786 779 771 764 761
801 805 809 811 814 817 820 823 826 828 831 834 837 840 843 845 847 849 849 850 850 852 853 854 854 856 857 859 861 863 864 865 867 868 868 869 870 871 872 872 873 873 874 874 874 874 874 874 874 874 873 873 872 871 870 870 869 867 866 865 863 861 859 857 854 851 848 844 840 837 833 829 825 822 818 813 809 804 799 793 786 777 770 764 757
799 803 807 810 813 816 818 822 825 827 830 833 835 838 841 843 846 848 849 849 849 851 852 853 854 855 857 859 861 863 864 865 866 867 868 869 870 871 871 872 872 873 873 873 874 874 874 874 874 873 873 872 871 870 869 869 867 866 865 864 862 861 859 856 854 851 848 845 841 837 834 830 826 822 818 813 808 803 798 793 787 779 773 768 761
799 801 804 808 811 814 817 820 823 826 829 831 834 837 840 842 845 847 849 849 849 850 851 852 853 855 857 859 861 863 864 865 866 867 868 869 869 870 871 871 871 872 873 873 873 873 874 873 873 873 872 871 870 869 868 867 866 865 864 862 861 859 858 856 853 851 848 845 842 838 835 831 827 822 819 814 808 802 797 791 786 781 775 771 765
799 800 802 806 809 812 815 818 821 824 827 830 833 836 839 842 844 847 848 848 848 849 850 851 853 855 857 859 861 863 864 865 866 867 868 869 869 870 870 870 871 871 872 872 872 873 873 873 873 873 872 871 870 869 868 866 865 864 862 861 860 858 856 854 852 850 847 845 842 838 835 832 828 823 818 814 809 804 797 790 784 779 775 771 765
799 801 801 805 809 811 814 817 820 823 826 829 833 836 838 841 843 845 847 847 848 848 849 851 853 855 857 859 861 862 864 865 866 867 868 868 869 869 870 870 870 871 871 871 872 872 872 872 872 872 871 870 869 868 867 866 865 863 862 861 859 857 855 853 851 849 846 844 841 838 834 831 827 823 818 813 809 805 799 792 785 779 774 769 764
798 800 802 804 808 811 813 817 819 822 825 828 831 834 838 840 842 844 845 847 847 848 849 851 853 855 857 859 860 862 863 864 866 867 867 868 868 869 869 869 870 870 870 871 871 872 872 872 872 871 871 870 869 868 867 866 865 863 862 861 858 856 854 852 850 848 846 843 840 837 834 830 826 823 818 813 808 803 797 791 784 778 771 765 759
795 799 801 804 806 809 813 816 819 821 824 827 829 832 836 839 841 842 844 846 847 848 849 852 854 855 857 858 859 860 862 863 863 864 865 866 867 868 868 869 869 869 870 870 871 871 871 871 871 871 870 870 869 868 867 866 865 863 862 860 858 856 854 851 848 846 844 842 839 836 832 829 825 821 816 811 806 801 794 788 782 776 769 763 756
793 797 800 802 805 808 811 814 817 820 823 826 829 832 835 837 839 841 843 845 846 847 849 852 854 855 856 857 858 858 859 860 861 862 863 864 865 866 867 868 869 869 869 870 870 871 871 871 871 870 870 869 868 867 866 865 864 863 862 860 857 855 853 851 847 844 842 839 837 833 830 826 823 818 814 809 804 799 794 788 782 776 770 764 757
791 794 798 800 804 807 809 813 816 819 822 825 827 830 834 836 838 839 842 844 845 847 849 851 853 854 855 856 857 858 858 859 860 861 861 862 864 865 867 868 868 868 869 869 870 870 870 870 870 869 869 868 867 867 866 865 864 863 861 859 857 855 853 850 847 844 840 837 834 830 827 823 819 815 811 807 802 798 794 788 782 776 771 765 758
789 792 796 799 802 806 809 812 815 817 821 824 826 829 832 835 837 838 841 844 845 847 849 851 853 854 855 856 857 858 858 859 860 861 861 861 863 865 866 867 867 867 868 868 869 869 869 869 869 869 868 868 867 866 865 864 863 862 861 859 857 855 852 849 846 843 839 835 832 828 825 821 818 814 810 805 800 796 792 787 782 777 772 766 760
787 791 794 798 801 804 807 810 813 816 820 823 825 828 831 834 836 838 841 843 844 846 848 851 852 853 854 855 857 858 858 858 860 860 860 861 862 864 866 866 866 867 867 868 868 868 869 869 868 868 867 867 866 865 864 863 862 861 860 859 857 854 851 848 845 841 838 834 831 828 824 821 817 813 809 805 800 795 790 785 781 776 772 766 759
786 789 792 796 799 802 806 809 812 815 818 821 825 827 830 833 836 838 841 842 844 846 848 851 852 853 854 856 856 857 857 858 859 860 860 861 862 864 865 865 865 866 867 867 868 868 868 868 867 867 866 866 865 864 863 862 861 860 859 857 855 853 850 847 844 840 837 834 830 827 824 820 816 813 809 804 800 795 789 784 780 775 771 767 761
784 788 791 795 798 801 805 808 811 814 817 820 824 826 830 833 835 838 840 842 844 845 848 850 851 852 854 855 856 857 858 858 859 859 860 861 862 863 864 864 864 865 866 866 867 867 867 867 866 866 865 864 864 863 862 861 860 859 858 856 854 851 849 846 843 840 837 833 830 827 823 820 816 812 808 804 800 794 789 783 779 774 768 764 761
783 787 791 794 798 801 804 807 810 813 816 819 823 825 828 831 834 836 839 842 843 845 847 849 850 851 853 854 855 856 857 858 858 859 859 860 861 862 863 863 863 864 865 865 865 866 866 865 865 865 864 863 863 862 861 860 859 858 857 855 852 850 847 845 842 839 836 833 830 827 823 820 817 813 809 804 799 793 789 784 778 773 768 763 758
783 786 790 793 796 799 803 806 809 812 815 818 821 823 826 829 832 835 838 840 842 843 845 847 848 850 851 853 854 855 856 857 857 858 859 860 860 861 862 862 863 863 864 864 864 864 864 864 864 863 863 862 861 861 860 859 858 857 855 853 851 849 847 844 842 839 836 833 830 827 824 821 817 813 809 804 798 794 790 784 778 772 768 763 757
781 785 788 791 795 798 801 805 808 810 814 816 819 821 824 827 830 833 835 838 839 841 843 845 846 848 849 850 852 853 854 855 856 857 858 859 859 860 860 861 862 862 863 863 863 863 863 863 862 862 861 861 860 859 859 858 857 855 854 852 850 848 846 844 841 839 836 833 830 827 824 820 816 812 808 803 799 795 790 784 778 772 767 762 756
780 784 787 790 793 796 799 802 806 809 812 815 817 820 822 825 828 830 832 835 836 838 841 842 844 845 846 848 850 851 852 854 855 856 857 857 858 859 859 860 860 861 861 862 861 862 862 861 861 861 860 860 859 858 857 856 855 854 852 851 849 847 845 843 840 838 836 833 830 827 824 820 816 812 808 804 800 796 791 785 780 773 767 762 757
778 782 785 788 791 794 797 800 804 807 811 813 815 818 820 823 825 827 829 831 834 836 838 839 841 843 844 846 848 850 851 852 853 854 855 855 856 857 858 858 859 859 860 860 860 860 860 860 860 859 859 859 858 857 856 855 854 853 851 850 848 846 843 841 839 837 836 833 830 827 823 819 816 812 808 805 801 796 792 787 782 776 769 764 758
778 780 783 786 790 793 796 799 802 805 809 812 814 816 818 821 823 825 827 829 831 833 835 837 839 841 843 845 846 848 849 850 850 851 852 853 854 855 856 857 857 858 858 858 859 859 859 859 859 858 858 858 857 856 855 854 853 852 850 849 847 845 843 841 839 837 835 832 829 826 823 819 816 813 809 806 801 797 792 788 783 778 772 767 761
777 780 782 785 788 791 794 798 800 803 806 809 812 815 817 819 822 823 825 828 830 832 834 836 838 840 842 843 845 846 848 848 849 850 851 851 852 853 854 855 856 856 857 857 857 858 858 857 857 857 857 856 856 855 854 853 852 851 849 848 846 844 842 841 838 837 834 831 829 826 823 820 816 813 810 807 802 798 793 789 785 780 775 769 764
775 779 781 784 786 789 792 795 798 802 804 807 810 813 816 818 820 822 824 826 828 830 832 834 837 839 841 842 844 845 846 847 847 849 849 850 851 851 852 853 854 854 855 855 856 856 856 856 855 855 855 855 854 854 853 852 850 849 848 847 845 843 842 840 838 836 833 830 828 825 822 820 817 813 810 807 803 799 795 790 786 782 778 773 768
772 776 779 782 784 787 790 793 796 799 802 805 807 810 813 816 818 821 823 825 827 829 831 833 835 837 838 841 842 843 844 845 846 847 847 848 849 849 850 851 852 852 853 853 854 854 854 854 854 853 853 853 852 852 851 850 849 848 847 846 844 842 841 839 837 835 833 830 828 825 822 820 817 813 810 807 803 800 796 791 787 784 780 776 771
770 773 776 780 783 786 789 791 794 796 799 802 805 807 810 813 815 818 821 823 825 828 829 831 833 834 836 838 840 841 842 843 844 845 846 846 847 848 849 849 850 851 851 851 852 852 852 852 852 851 851 851 851 850 849 848 847 846 845 844 843 841 840 838 836 834 832 830 828 825 822 820 817 813 810 807 804 801 797 793 789 786 782 778 773
768 771 774 777 780 783 786 789 791 794 797 800 802 805 807 810 812 815 818 821 823 825 827 829 831 832 834 836 837 838 839 840 842 843 844 844 845 846 847 848 848 848 849 849 850 850 850 850 850 849 849 849 849 848 847 846 846 845 844 843 841 840 838 837 835 833 831 829 827 825 823 820 817 814 811 807 805 802 798 795 791 788 784 780 776
768 770 773 775 778 781 784 786 789 792 795 797 799 802 805 807 810 812 815 817 820 822 824 826 828 830 832 833 835 836 837 838 839 840 841 842 844 844 845 846 846 846 847 847 847 847 848 848 847 847 847 847 846 846 845 844 843 843 842 841 840 838 837 835 834 832 831 829 827 825 822 820 817 814 811 808 805 802 799 796 793 790 786 783 779
768 770 773 775 778 780 782 785 787 790 792 794 797 800 802 805 807 810 812 815 817 820 822 824 826 827 829 831 832 833 834 836 837 838 839 840 841 842 843 843 843 844 844 844 845 845 845 845 845 845 845 844 844 843 843 842 841 841 840 839 838 836 835 834 832 831 829 828 826 824 822 820 817 815 812 809 806 803 801 798 794 791 788 784 781
766 768 771 774 776 778 781 783 785 788 790 793 795 798 800 802 805 807 810 812 814 817 819 821 823 824 826 828 829 830 832 833 835 836 837 838 839 840 840 840 841 841 842 842 842 843 842 842 842 842 842 842 841 841 840 840 839 839 838 837 836 834 833 832 830 829 828 826 824 823 821 819 817 814 812 809 807 804 801 798 795 792 789 786 782
764 766 768 771 774 777 779 782 784 787 789 792 794 797 799 801 803 806 808 810 812 815 817 818 820 822 823 824 826 828 829 831 832 834 835 836 836 837 837 838 838 839 839 840 840 840 840 840 840 839 839 839 839 838 838 838 837 837 836 835 834 832 831 829 828 827 825 824 823 821 820 818 816 814 812 810 807 805 802 799 796 793 790 787 784
763 765 767 770 772 775 778 780 783 786 788 790 793 795 797 799 802 804 806 808 810 813 814 816 817 819 821 822 823 825 827 828 830 831 832 833 833 834 835 835 836 836 837 837 837 837 837 837 837 836 836 836 836 836 835 835 835 834 833 832 831 830 829 827 826 824 823 822 821 820 818 817 815 814 812 810 808 805 802 799 797 794 791 788 786
762 764 767 769 771 774 776 778 781 783 785 788 791 793 795 797 800 802 804 806 809 811 812 814 815 817 818 819 820 822 824 826 827 828 829 830 830 831 832 833 833 834 834 835 835 835 835 834 834 834 833 833 833 833 833 833 832 832 831 830 829 828 827 825 824 823 821 820 819 818 817 815 814 812 811 809 807 805 802 800 798 795 792 790 787
760 763 765 768 770 772 775 777 779 781 783 786 788 790 792 795 797 799 801 803 805 808 810 811 813 815 816 817 818 819 822 823 824 825 826 827 828 829 829 830 831 831 831 832 832 832 832 831 831 831 831 830 830 830 830 830 830 829 828 828 826 825 824 823 822 820 819 818 817 816 815 814 813 811 810 808 806 804 802 800 798 796 793 791 788
759 762 765 767 769 771 773 775 777 780 782 785 787 789 791 793 795 797 799 800 802 805 806 808 811 813 814 815 816 817 819 821 822 823 823 824 825 826 827 827 828 828 829 829 829 829 829 829 828 828 828 828 828 828 827 827 827 826 826 825 824 823 822 821 820 818 817 816 815 813 812 812 811 809 808 807 805 803 802 800 798 796 793 791 789
758 761 764 767 768 770 772 774 776 778 780 783 785 787 790 792 794 795 797 799 800 802 804 806 808 810 812 813 814 815 817 818 819 820 820 821 822 823 824 824 825 825 826 826 826 826 826 826 826 826 825 825 825 825 825 824 824 823 823 822 821 821 820 818 817 816 815 814 813 811 810 809 808 807 806 805 804 802 801 799 798 796 794 792 789
757 760 763 765 767 769 771 772 774 776 778 780 783 785 787 789 791 793 795 797 798 800 802 804 806 808 809 810 811 813 814 815 816 817 817 818 819 820 820 821 822 822 822 823 823 823 823 823 823 823 822 822 822 822 822 821 821 820 820 819 819 818 817 816 815 814 813 812 810 809 808 807 806 805 804 803 802 801 800 798 797 796 794 792 790
754 757 760 763 765 768 769 771 773 775 777 779 781 783 785 787 789 791 793 795 796 798 800 801 803 805 806 807 808 810 811 812 813 814 814 815 815 816 817 818 819 819 819 820 820 820 820 820 820 819 819 819 819 819 818 818 818 817 817 816 816 815 814 813 812 811 810 809 808 807 806 805 804 803 802 801 800 800 799 797 796 795 793 792 790
753 755 758 760 763 765 767 769 771 773 775 777 779 781 783 785 786 788 790 792 794 796 798 799 801 803 803 804 805 806 808 809 810 810 811 812 812 813 814 815 815 816 816 817 817 817 817 817 816 816 816 816 816 815 815 815 814 814 813 813 812 812 811 810 809 809 808 806 805 805 804 802 801 800 800 799 798 798 797 796 795 794 793 791 790
751 753 755 758 760 762 765 767 769 771 773 775 777 779 781 782 784 787 788 790 792 794 795 797 799 800 801 801 802 803 804 806 807 807 808 808 809 810 811 811 812 813 813 814 814 814 814 814 813 813 813 812 812 812 812 811 811 811 810 810 809 809 808 807 806 805 805 804 803 802 801 800 799 798 797 797 796 796 795 793 792 792 791 790 789
749 752 754 756 758 760 762 765 768 770 772 773 775 777 779 780 783 785 786 788 789 791 793 794 796 797 798 799 799 800 802 803 803 804 805 805 806 807 808 808 809 809 810 810 811 811 811 810 810 810 809 809 809 809 808 808 808 807 807 806 806 805 805 804 803 802 801 800 800 799 798 797 797 796 795 794 794 793 792 791 790 790 789 788 787
748 750 753 755 757 758 760 762 765 768 770 772 774 776 777 779 781 783 785 786 787 788 790 792 793 794 795 796 797 798 799 800 800 801 802 802 803 804 805 805 806 806 806 807 807 807 807 807 807 806 806 806 805 805 805 804 804 804 803 803 802 802 801 800 799 799 798 797 797 796 795 794 794 793 793 792 791 790 789 788 787 787 787 786 785
747 749 751 753 756 758 759 761 763 765 767 770 772 774 776 777 779 781 783 784 785 786 788 789 791 791 792 793 794 795 796 797 797 798 799 799 800 801 801 802 803 803 803 804 804 804 804 804 803 803 803 802 802 802 801 801 801 800 800 799 799 798 798 797 796 796 795 794 794 793 792 792 791 790 790 789 788 787 786 785 784 784 783 783 782
746 748 750 752 754 757 759 760 762 764 766 767 769 771 773 775 777 779 781 782 783 784 785 786 788 788 789 790 792 792 793 793 794 795 796 796 797 798 798 799 799 799 800 800 800 800 800 800 800 799 799 799 798 798 798 797 797 797 796 796 796 795 794 794 794 793 793 792 791 790 790 789 788 787 787 786 785 784 783 782 781 781 780 779 779